Starlink 11440

operational
NORAD ID: 62513 Int'l Des: 2025-004 Owner: SPXS Country: US Constellation: starlink
LEOCIRCULAR

Über Starlink 11440

Beschreibung wird geladen...

Live-Position

3D-Globus wird geladen...

Nächste Überflüge

Höhenverlauf

Altitude vs Time

uPlot chart will show altitude changes over time

Zweizeiliger Elementsatz

1 62513U 25004C 25306.50630547 .00378803 00000-0 28119-2 0 9996
2 62513 42.9989 117.5518 0002361 249.0132 111.0483 15.70935355 47205
Epoch: 2. Nov. 2025 • Age: 39 hours

Aktueller Status

Höhe 355.9 km
Geschwindigkeit 7.70 km/s
Subsatellitenpunkt 37.48°N, 147.66°E
Startdatum 8. Jan. 2025
Alter 0.8 years
Typ internet

Technische Details

Klassifizierung Payload
Masse 960.00 kg
Trockenmasse 910.00 kg
Gesamtmasse 960.00 kg
Länge 0.30 m
Durchmesser 4.10 m
Spannweite 29.00 m
Form Box + pan
Hersteller SPXS
Bus-Typ Starlink V2MD
Phasenstatus In Orbit
Besitzer/Staat SPXS/US

Große Konstellationen

Loading constellations...